Regional Weather Roundup
Issued by NWS

Home | Current Version | Previous Version | Text Only | Print | Product List | Glossary On
Versions: 1 2 3 4 5 6 7 8 9 10 11 12 13 14 15 16 17 18 19 20 21 22 23 24 25 26 27 28 29 30 31 32 33 34 35 36 37 38 39 40 41 42 43 44 45 46 47 48 49 50
000
ASUS44 KBMX 251410
RWRAL

ALABAMA REGIONAL WEATHER ROUNDUP
NATIONAL WEATHER SERVICE BIRMINGHAM AL
900 AM CDT FRI MAY 25 2018

NOTE: "FAIR" INDICATES FEW OR NO CLOUDS BELOW 12,000 FEET
WITH NO SIGNIFICANT WEATHER AND/OR OBSTRUCTIONS TO VISIBILITY.

THE REMARK "TC" DENOTES TEMPERATURE IN DEGREES CELSIUS.

ALZ001>011-014-016>018-020-251500-
NORTH ALABAMA

CITY           SKY/WX    TMP DP  RH WIND       PRES   REMARKS
MUSCLE SHOALS  FAIR      78  70  76 SE7       30.04R
HUNTSVILLE     FAIR      79  71  76 SE8       30.04S
DECATUR        FAIR      77  69  76 SE7       30.04S
HALEYVILLE       N/A    N/A N/A N/A MISG        N/A
GADSDEN        FAIR      77  73  87 E3        30.07S
$$

ALZ012-013-022-023-030>036-040>044-251500-
WEST CENTRAL ALABAMA

CITY           SKY/WX    TMP DP  RH WIND       PRES   REMARKS
TUSCALOOSA     FAIR      75  69  81 CALM      30.04S
DEMOPOLIS      FAIR      72  67  87 CALM      30.04S
$$

ALZ015-024>026-033>036-041>044-251500-
CENTRAL ALABAMA

CITY           SKY/WX    TMP DP  RH WIND       PRES   REMARKS
BIRMINGHAM     PTSUNNY   78  68  71 E5        30.07S
MONTGOMERY     NOT AVBL
SHELBY CO ARPT   N/A     77  69  76 E3        30.05S
MAXWELL AFB    CLOUDY    77  71  84 N3        30.03S
GREENVILLE     CLOUDY    73  69  87 CALM      30.05R
SELMA          FAIR      77  70  78 CALM      30.04S
PRATTVILLE     FAIR      74  73  94 CALM      30.03F
BESSEMER       FAIR      77  69  76 E5        30.07S
TALLADEGA      FAIR      76  72  88 CALM      30.06F
PELL CITY      MOSUNNY   75  73  94 CALM      30.06F
MARION         FAIR      75  73  95 MISG      30.03F
SYLACAUGA      PTSUNNY   77  76  97 E8        30.06S
$$

ALZ019-021-028-029-037-038-045>048-251500-
EAST CENTRAL ALABAMA

CITY           SKY/WX    TMP DP  RH WIND       PRES   REMARKS
ANNISTON       CLOUDY    75  69  81 NE7       30.07S
ALEXANDER CITY   N/A    N/A N/A N/A MISG        N/A
AUBURN         CLOUDY    74  71  91 E3        30.08S
$$

ALZ051>064-251500-
SOUTHWEST ALABAMA

CITY           SKY/WX    TMP DP  RH WIND       PRES   REMARKS
MOBILE         PTSUNNY   80  72  76 NE3       30.04R
BROOKLEY FIELD FAIR      79  73  82 NE7       30.04R
EVERGREEN      FAIR      76  69  79 E3        30.06R
$$

ALZ049-050-065>069-251500-
SOUTHEAST ALABAMA

CITY           SKY/WX    TMP DP  RH WIND       PRES   REMARKS
DOTHAN         CLOUDY    73  71  93 SE5       30.09R FOG
OZARK          CLOUDY    75  73  94 SE5       30.05R
TROY           FAIR      72  70  93 E3        30.06R
EUFAULA        CLOUDY    77  72  84 S5        30.05R
$$



USA.gov is the U.S. government's official web portal to all federal, state and local government web resources and services.